Regional Weather Roundup
Issued by NWS

Home | Current Version | Previous Version | Graphics & Text | Print | Product List | Glossary On
Versions: 1 2 3 4 5 6 7 8 9 10 11 12 13 14 15 16 17 18 19 20 21 22 23 24 25 26 27 28 29 30 31 32 33 34 35 36 37 38 39 40 41 42 43 44 45 46 47 48 49 50
000
ASUS45 KPSR 210900
RWRAZ

PRELIMINARY ARIZONA REGIONAL HOURLY WEATHER ROUNDUP
NATIONAL WEATHER SERVICE PHOENIX AZ
200 AM MST MON APR 21 2014

NOTE: FAIR INDICATES FEW OR NO CLOUDS BELOW 12,000 FEET WITH NO
SIGNIFICANT WEATHER AND/OR OBSTRUCTIONS TO VISIBILITY.

AZZ001>003-036-211000-
NORTHWEST ARIZONA

CITY           SKY/WX    TMP DP  RH WIND       PRES   REMARKS
KINGMAN        CLEAR     62  33  33 CALM      30.10F
$$

AZZ004>008-015-016-018-211000-
NORTH CENTRAL ARIZONA

CITY           SKY/WX    TMP DP  RH WIND       PRES   REMARKS
GRAND CANYON   CLEAR     33  28  81 NE3       30.27F
WILLIAMS       CLEAR     41  30  65 SE6       30.34F
PRESCOTT       CLEAR     54  36  50 S7        30.19F
FLAGSTAFF      PTCLDY    37  31  78 CALM      30.29F
PAYSON         CLEAR     54  36  50 CALM      30.22S
PAGE           CLEAR     62  35  36 S5        30.13R
$$

AZZ009>014-017-211000-
NORTHEAST ARIZONA

CITY           SKY/WX    TMP DP  RH WIND       PRES   REMARKS
WINSLOW        NOT AVBL
SAINT JOHNS    CLEAR     54  34  46 SW5       30.21S
WINDOW ROCK    PTCLDY    37  27  67 CALM      30.26S
SHOW LOW       CLEAR     48  32  53 S9        30.28R
$$

AZZ023-211000-
GREATER PHOENIX AREA

CITY           SKY/WX    TMP DP  RH WIND       PRES   REMARKS
PHOENIX        CLEAR     74  38  27 CALM      29.97S
LUKE AFB       NOT AVBL
DEER VALLEY    CLEAR     71  34  25 CALM      29.99S
SCOTTSDALE     CLEAR     70  43  37 CALM      30.00F
$$

AZZ027-028-211000-
SOUTHWEST MARICOPA COUNTY AND PINAL COUNTY

CITY           SKY/WX    TMP DP  RH WIND       PRES   REMARKS
CASA GRANDE    CLEAR     63  28  27 CALM      30.00S
$$

AZZ503-504-507>509-211000-
SOUTHEAST ARIZONA

CITY           SKY/WX    TMP DP  RH WIND       PRES   REMARKS
TUCSON         CLEAR     65  34  31 SE7       30.07F
DAVIS-MONTHAN  CLEAR     63  35  35 SE5       30.06F
NOGALES        CLEAR     56  33  42 NE5       30.12F
SIERRA VISTA   CLEAR     61  34  36 S6        30.17S
SAFFORD        CLEAR     57  29  34 E3        30.08S
$$

AZZ020-021-025-026-031-211000-
SOUTHWEST ARIZONA

CITY           SKY/WX    TMP DP  RH WIND       PRES   REMARKS
YUMA           CLEAR     73  43  33 CALM      29.94F
$$

CAZ031-033-041-043-047-048-061-211000-
SOUTHERN CALIFORNIA

CITY           SKY/WX    TMP DP  RH WIND       PRES   REMARKS
DOWNTOWN L.A.  CLEAR     60  55  83 CALM      30.04F
L.A. AIRPORT   CLEAR     60  54  80 CALM      30.05S
SAN DIEGO      CLOUDY    61  56  83 SW6       30.07S
BURBANK        CLEAR     61  55  81 E5        30.04F
ONTARIO        CLEAR     63  53  70 CALM      30.04F
RIVERSIDE      CLEAR     62  53  72 CALM      30.04F
PALM SPRINGS   CLEAR     73  53  49 CALM      29.98S
EL CENTRO NAS  CLEAR     70  41  34 W7        29.92S
IMPERIAL       CLEAR     72  42  34 N3        29.92S
BLYTHE         CLEAR     76  41  28 SW6       29.95S
$$

NVZ020-UTZ003-211000-
SOUTHERN NEVADA-UTAH

CITY           SKY/WX    TMP DP  RH WIND       PRES   REMARKS
LAS VEGAS      NOT AVBL
SALT LAKE CITY CLEAR     47  30  51 CALM      30.21S
$$

NMZ009-TXZ055-211000-
NEW MEXICO-WEST TEXAS

CITY           SKY/WX    TMP DP  RH WIND       PRES   REMARKS
ALBUQUERQUE    PTCLDY    55  35  47 SE7       30.16R
EL PASO        CLEAR     59  45  59 E3        30.09S
$$


........................KEY........................
SKY/WX - SKY CONDITION/WEATHER
TMP    - TEMPERATURE IN FAHRENHEIT
DP     - DEW POINT IN FAHRENHEIT
RH     - RELATIVE HUMIDITY IN PERCENT
WIND   - DIRECTION AND SPEED IN MILES PER HOUR (MPH)
VRB    - VARIABLE WIND DIRECTION
PRES   - MEAN SEA LEVEL PRESSURE IN INCHES OF MERCURY
         F - FALLING PRESSURE   R - RISING PRESSURE
         S - STEADY PRESSURE
VSB    - VISIBILITY IN MILES
HX     - HEAT INDEX IN FAHRENHEIT
WCI    - WIND CHILL INDEX IN FAHRENHEIT
TC     - TEMPERATURE IN CELSIUS WHICH IS ALSO KNOWN AS
         TEMPERATURE IN CENTIGRADE
AFB    - AIR FORCE BASE
         LUKE AFB IS LUKE AIR FORCE BASE
         DAVIS-MONTHAN IS DAVIS-MONTHAN AIR FORCE BASE
NAS    - NAVAL AIR STATION
         EL CENTRO NAS IS EL CENTRO NAVAL AIR STATION
N/A    - NOT AVAILABLE



USA.gov is the U.S. government's official web portal to all federal, state and local government web resources and services.